Regional Weather Roundup
Issued by NWS

Home | Current Version | Previous Version | Graphics & Text | Print | Product List | Glossary On
Versions: 1 2 3 4 5 6 7 8 9 10 11 12 13 14 15 16 17 18 19 20 21 22 23 24 25 26 27 28 29 30 31 32 33 34 35 36 37 38 39 40 41 42 43 44 45 46 47 48 49 50
000
ASUS43 KMPX 271701
RWRMN
WEATHER ROUNDUP FOR MINNESOTA
NATIONAL WEATHER SERVICE TWIN CITIES/CHANHASSEN MN
1200 PM CDT MON JUL 27 2015


NOTE: "FAIR" INDICATES FEW OR NO CLOUDS BELOW 12,000 FEET WITH NO
SIGNIFICANT WEATHER AND/OR OBSTRUCTIONS TO VISIBILITY. N/A MEANS
CURRENT SKY AND/OR WEATHER CONDITIONS ARE NOT AVAILABLE.

MNZ060>063-068>070-271800-
   Twin Cities Metro

CITY           SKY/WX    TMP DP  RH WIND       PRES   REMARKS
TWIN CITIES    MOSUNNY   84  72  67 SE15      29.95F
ST PAUL        PTSUNNY   83  72  69 SE10      29.96F
CRYSTAL        PTSUNNY   85  71  63 SE10      29.94F HX  90
LAKEVILLE      PTSUNNY   79  72  78 SE8       29.97S
EDEN PRAIRIE   MOSUNNY   83  73  72 SE10      29.94F
SOUTH ST PAUL  PTSUNNY   82  70  67 SE8       29.97S
LAKE ELMO      PTSUNNY   81  72  74 SE7       29.99F
$$
MNZ001>005-007-008-013>017-022>024-027-028-271800-
   Northwest Minnesota

CITY           SKY/WX    TMP DP  RH WIND       PRES   REMARKS
BEMIDJI        PTSUNNY   80  69  67 SE13G22   29.93S
HALLOCK        PTSUNNY   84  72  65 SE8       29.87S
ROSEAU         PTSUNNY   82  73  74 SE5       29.91S
WARROAD        MOSUNNY   81  73  78 E6        29.92S
THIEF RVR FALL MOSUNNY   82  70  65 SE14      29.89F
CROOKSTON      PTSUNNY   82  72  69 S12       29.88S
FOSSTON        PTSUNNY   81  70  69 S6        29.91S
DETROIT LAKES  MOSUNNY   79  70  73 S14       29.92S
MOORHEAD       PTSUNNY   81  72  74 SE12      29.87F
PARK RAPIDS    PTSUNNY   83  69  62 SE17      29.93S
MAHNOMEN       PTSUNNY   82  71  68 S9G16     29.90S
$$
MNZ006-009>011-018-025>026-271800-
   North Central Minnesota

CITY           SKY/WX    TMP DP  RH WIND       PRES   REMARKS
BAUDETTE       MOSUNNY   83  67  58 SE9       29.92F
FLAG ISLAND    MOSUNNY   77  70  78 S6        29.91F
INTL FALLS     MOSUNNY   83  66  56 SE8       29.95F
WASKISH        MOSUNNY   84  68  58 SE7       29.92F
BIG FORK       SUNNY     84  66  54 SE7       29.97F
LONGVILLE      PTSUNNY   81  70  69 SE9       29.95S
GRAND RAPIDS   SUNNY     82  63  51 S13G18    29.98F
CRANE LAKE     SUNNY     82  64  54 SE5       29.99F
ORR            SUNNY     84  61  45 SE7       29.95F
COOK           SUNNY     82  64  54 S7        29.99F
WALKER         PTSUNNY   80  70  72 SE9       29.94S
$$
MNZ012-019>021-037-271800-
   Northeast Minnesota

CITY           SKY/WX    TMP DP  RH WIND       PRES   REMARKS
DULUTH         MOSUNNY   81  67  62 SE13      30.01S
ELY            SUNNY     84  61  45 S7        30.00F
HIBBING        MOSUNNY   83  64  52 SE12      29.99F
EVELETH        MOSUNNY   82  63  51 SE12      30.01S
DULUTH HARBOR  SUNNY     75  72  88 NE7       29.99S
TWO HARBORS    SUNNY     84  70  61 S8        29.99S
SILVER BAY     SUNNY     82  64  54 S6        29.99F
GRAND MARAIS     N/A     59  55  87 SW9       29.99S
G MARAIS ARPRT SUNNY     82  61  47 S6        30.06S
$$
MNZ029>031-032-039>041-046>048-054>057-064-271800-
   West Central Minnesota

CITY           SKY/WX    TMP DP  RH WIND       PRES   REMARKS
FERGUS FALLS   MOSUNNY   81  72  74 SE13      29.87S
WHEATON        MOSUNNY   79  72  78 SE14      29.87F
MORRIS         MOSUNNY   82  75  78 SE17      29.87F
ALEXANDRIA     PTSUNNY   81  72  74 SE16      29.92F
ELBOW LAKE     PTSUNNY   81  73  76 SE15G21   29.89R
WADENA         PTSUNNY   79  70  73 SE14      29.91F
GLENWOOD       MOSUNNY   82  73  74 SE15G22   29.92F
APPLETON       MOSUNNY  N/A N/A N/A SE15      29.86F
BENSON         PTSUNNY   81  72  74 S12G20    29.88F
ORTONVILLE     MOSUNNY   82  73  74 SE12      29.85F
MADISON        MOSUNNY   81  73  78 SE10      29.86F
WILLMAR        FAIR      82  75  78 SE12      29.92F
$$
MNZ033>034-036-042>043-049>051-058-059-271800-
   Central Minnesota

CITY           SKY/WX    TMP DP  RH WIND       PRES   REMARKS
ST CLOUD       MOSUNNY   83  72  69 SE10      29.93F
SAUK CENTRE    PTSUNNY  N/A N/A N/A SE13G18   29.93F
PAYNESVILLE    PTSUNNY   78  72  81 E12       29.93F
AITKIN         MOSUNNY   84  70  61 SE9       29.95F
PINE RIVER     PTSUNNY   81  70  69 SE15      29.97S
BRAINERD       PTSUNNY   81  68  64 SE12      29.94F
STAPLES        CLOUDY    79  70  73 SE8       29.92F
LONG PRAIRIE   CLOUDY    79  72  78 SE12      29.93F
LITTLE FALLS   PTSUNNY   81  68  65 SE12      29.94S
LITCHFIELD     MOSUNNY   82  77  83 SE10      29.93F HX  91
BUFFALO        PTSUNNY   82  71  68 E9        29.94F
MAPLE LAKE     MOSUNNY   82  75  78 SE7       29.94F
$$
MNZ037-044-045-052-053-271800-
   East Central Minnesota

CITY           SKY/WX    TMP DP  RH WIND       PRES   REMARKS
PRINCETON      MOSUNNY   84  72  65 E12       29.95F
MORA           MOSUNNY   79  66  65 S7        29.99S
CAMBRIDGE      MOSUNNY   84  70  61 SE8       29.95F
RUSH CITY      PTSUNNY   81  69  67 SE7       29.98F
MOOSE LAKE     MOSUNNY   81  68  65 SE6       29.97F
HINCKLEY       PTSUNNY   81  70  69 SE10      29.98F
CLOQUET        SUNNY     81  63  54 SE8       30.00F
MCGREGOR       SUNNY     81  66  61 SE6       29.98F
$$
MNZ071>073-080-081-089-090-097-098-271800-
   Southwest Minnesota

CITY           SKY/WX    TMP DP  RH WIND       PRES   REMARKS
MONTEVIDEO     PTSUNNY   84  75  74 S13       29.89F HX  92
GRANITE FALLS  CLOUDY    78  73  85 E13       29.90F
CANBY          PTSUNNY   80  73  80 SE13      29.87F
MARSHALL       CLOUDY    79  72  78 SE15      29.90F
REDWOOD FALLS  CLOUDY    78  73  84 SE12      29.90F
OLIVIA         PTSUNNY   77  72  83 SE10      29.90F
PIPESTONE      MOSUNNY   82  75  78 SE13      29.89R
WINDOM         CLOUDY    75  72  88 E12       29.92S
WORTHINGTON    PTSUNNY   79  70  73 SE8       29.92S
JACKSON        CLOUDY    77  72  83 E9        29.94R
SLAYTON        PTSUNNY   77  74  90 SE10      29.91S
$$
MNZ065>067-074>077-082>085-091>093-271800-
   South Central Minnesota

CITY           SKY/WX    TMP DP  RH WIND       PRES   REMARKS
MANKATO        CLOUDY    77  72  83 SE14      29.95S
NEW ULM        CLOUDY    79  73  83 SE13      29.92F
ST JAMES       CLOUDY    79  75  89 E10       29.93F VSB 1
FAIRMONT       CLOUDY    75  68  78 SE15      29.93F
GLENCOE        CLOUDY    82  76  82 SE9       29.93F
FARIBAULT      PTSUNNY   81  73  78 SE9       29.97S
OWATONNA       PTSUNNY   81  72  74 SE13      29.98S
WASECA         CLOUDY    77  72  83 SE12      29.99S
ALBERT LEA     CLOUDY    77  73  88 SE8       29.99S
$$
MNZ078>079-086>088-094>096-271800-
   Southeast Minnesota

CITY           SKY/WX    TMP DP  RH WIND       PRES   REMARKS
ROCHESTER      PTSUNNY   79  72  79 SE8       30.02S
RED WING       PTSUNNY   81  70  69 SE8       29.97F
STANTON        PTSUNNY   81  71  72 SE9       29.96F
DODGE CENTER   PTSUNNY   79  72  78 SE9       30.00F
WINONA         MOSUNNY   81  68  65 SE7       30.00S
AUSTIN         CLOUDY    79  72  78 SE5       30.00S
PRESTON        PTSUNNY   78  69  73 SE7       30.03S
$$
ABBREVIATIONS USED IN REMARKS
   TC - TEMPERATURES IN CELSIUS
  WCI - WIND CHILL INDEX
   HX - HEAT INDEX
  VSB - VISIBILITY
$$


USA.gov is the U.S. government's official web portal to all federal, state and local government web resources and services.